Bowling Green, KY

2:13 AM CDT on April 30, 2017 (GMT -0500)
Bowling Green-Warren County Regional

Weather History for KBWG - June, 2013

Change the Weather History Date:

Saturday, June 1, 2013

  Actual Average Record
Temperature  
Mean Temperature 72 °F 71 °F  
Max Temperature 78 °F 82 °F 98 °F (1951)
Min Temperature 66 °F 60 °F 40 °F (1966)
Degree Days  
Heating Degree Days 0 1  
Month to date heating degree days 0 1  
Since 1 June heating degree days 0 1  
Since 1 July heating degree days 3875 4044  
Cooling Degree Days 7 7  
Month to date cooling degree days 7 7  
Year to date cooling degree days 220 160  
Since 1 June cooling degree days 7 7  
Growing Degree Days 22 (Base 50)    
Moisture  
Dew Point 65 °F    
Average Humidity 77    
Maximum Humidity 90    
Minimum Humidity 64    
Precipitation  
Precipitation 0.84 in 0.17 in 2.14 in (1896)
Month to date precipitation 0.84 0.17  
Year to date precipitation 25.37 22.10  
Snow  
Snow 0.00 in 0.00 in 0.00 in ()
Month to date snowfall 0.0 0.0  
Since 1 June snowfall 0.0 0.0  
Since 1 July snowfall 3.8 9.1  
Snow Depth 0.00 in    
Sea Level Pressure  
Sea Level Pressure 29.95 in    
Wind  
Wind Speed 7 mph (WSW)    
Max Wind Speed 20 mph    
Max Gust Speed 31 mph    
Visibility 8 miles    
Events Rain , Thunderstorm    
T = Trace of Precipitation, MM = Missing Value Source: NWS Daily Summary

Daily Weather History Graph

Daily Weather History Graph

Search for Another Location

Airport or City:

Trip Planner

Search our weather history database for the weather conditions in past years. The results will help you decide how hot, cold, wet, or windy it might be!

Date:

Astronomy

Jun. 01, 2013 Rise Set
Actual Time 5:27 AM CDT 7:59 PM CDT
Civil Twilight 4:57 AM CDT 8:30 PM CDT
Nautical Twilight 4:19 AM CDT 9:07 PM CDT
Astronomical Twilight 3:38 AM CDT 9:49 PM CDT
Moon 1:13 AM CDT (6/1) 1:37 PM CDT (6/1)
Length of Visible Light 15h 32m
Length of Day
14h 32m
Last Quarter, 40% of the Moon is Illuminated
Jun 1
Last Quarter
Jun 8
New
Jun 16
First Quarter
Jun 23
Full
Jun 29
Last Quarter

Hourly Weather History & Observations

Time (CDT) Temp. Dew Point Humidity Pressure Visibility Wind Dir Wind Speed Gust Speed Precip Events Conditions
12:53 AM 77.0 °F 64.9 °F 66% 29.96 in 10.0 mi South 10.4 mph - N/A   Partly Cloudy
1:53 AM 77.0 °F 64.0 °F 64% 29.95 in 10.0 mi SSW 11.5 mph - N/A   Clear
2:53 AM 75.9 °F 64.0 °F 67% 29.93 in 10.0 mi South 12.7 mph - N/A   Clear
3:53 AM 75.0 °F 64.0 °F 69% 29.92 in 10.0 mi SSW 11.5 mph - N/A   Clear
4:53 AM 75.0 °F 64.9 °F 71% 29.92 in 10.0 mi SSW 10.4 mph - N/A   Partly Cloudy
5:40 AM 69.8 °F 60.8 °F 73% 29.98 in 10.0 mi NW 15.0 mph 25.3 mph N/A   Overcast
5:53 AM 69.1 °F 61.0 °F 75% 29.99 in 10.0 mi NNW 15.0 mph 27.6 mph N/A Thunderstorm Thunderstorm
6:08 AM 66.2 °F 62.6 °F 88% 30.01 in 2.5 mi NW 8.1 mph 16.1 mph 0.10 in Rain , Thunderstorm Heavy Rain
6:19 AM 66.2 °F 62.6 °F 88% 30.02 in 1.2 mi WNW 5.8 mph - 0.27 in Rain Heavy Rain
6:27 AM 66.2 °F 62.6 °F 88% 30.02 in 1.8 mi Calm Calm - 0.32 in Rain Heavy Rain
6:34 AM 66.2 °F 62.6 °F 88% 30.01 in 2.5 mi Calm Calm - 0.37 in Rain Heavy Rain
6:50 AM 66.2 °F 62.6 °F 88% 30.01 in 3.0 mi Calm Calm - 0.46 in Rain Heavy Rain
6:53 AM 66.0 °F 62.1 °F 87% 30.00 in 3.0 mi South 4.6 mph - 0.47 in Rain Rain
7:22 AM 66.2 °F 62.6 °F 88% 30.03 in 2.0 mi South 8.1 mph - 0.15 in Rain Heavy Rain
7:31 AM 66.2 °F 62.6 °F 88% 30.02 in 4.0 mi SSW 3.5 mph - 0.19 in Rain Rain
7:53 AM 66.0 °F 63.0 °F 90% 29.99 in 7.0 mi NNE 4.6 mph - 0.26 in Rain Light Rain
8:50 AM 66.2 °F 64.4 °F 94% 30.00 in 10.0 mi Calm Calm - 0.09 in   Overcast
8:53 AM 66.0 °F 63.0 °F 90% 29.99 in 10.0 mi Calm Calm - 0.09 in   Overcast
9:53 AM 68.0 °F 64.0 °F 87% 29.99 in 10.0 mi SE 5.8 mph - 0.00 in   Overcast
10:11 AM 69.8 °F 66.2 °F 88% 29.99 in 10.0 mi SE 4.6 mph - N/A   Overcast
10:39 AM 69.8 °F 64.4 °F 83% 29.98 in 10.0 mi SE 4.6 mph - N/A   Overcast
10:53 AM 70.0 °F 64.9 °F 84% 29.97 in 10.0 mi ESE 5.8 mph - N/A   Overcast
11:53 AM 73.9 °F 66.9 °F 79% 29.95 in 10.0 mi NNW 3.5 mph - 0.00 in   Mostly Cloudy
12:10 PM 75.2 °F 69.8 °F 83% 29.95 in 10.0 mi NW 5.8 mph - N/A   Mostly Cloudy
12:43 PM 73.4 °F 66.2 °F 78% 29.94 in 10.0 mi NNW 5.8 mph - N/A   Overcast
12:53 PM 73.0 °F 66.0 °F 79% 29.92 in 10.0 mi NNW 3.5 mph - N/A   Overcast
1:53 PM 75.9 °F 68.0 °F 76% 29.91 in 10.0 mi NW 6.9 mph - N/A   Overcast
2:34 PM 73.4 °F 68.0 °F 83% 29.92 in 10.0 mi NW 8.1 mph 18.4 mph 0.00 in   Overcast
2:53 PM 73.9 °F 66.9 °F 79% 29.90 in 10.0 mi NW 9.2 mph 17.3 mph 0.00 in   Overcast
3:07 PM 73.4 °F 66.2 °F 78% 29.93 in 9.0 mi NW 10.4 mph - 0.01 in Rain Light Rain
3:53 PM 72.0 °F 64.9 °F 78% 29.91 in 10.0 mi NNW 4.6 mph - 0.01 in   Mostly Cloudy
4:53 PM 73.0 °F 66.0 °F 79% 29.87 in 10.0 mi South 6.9 mph - 0.01 in   Scattered Clouds
5:53 PM 72.0 °F 66.0 °F 81% 29.81 in 10.0 mi SSE 12.7 mph 19.6 mph N/A   Clear
6:53 PM 72.0 °F 66.9 °F 84% 29.85 in 10.0 mi South 9.2 mph - N/A   Partly Cloudy
7:19 PM 71.6 °F 66.2 °F 83% 29.87 in 10.0 mi WSW 5.8 mph - N/A   Mostly Cloudy
7:53 PM 72.0 °F 66.9 °F 84% 29.88 in 10.0 mi SW 5.8 mph - N/A   Overcast
8:53 PM 71.1 °F 66.0 °F 84% 29.88 in 10.0 mi SSW 3.5 mph - N/A   Overcast
9:12 PM 71.6 °F 66.2 °F 83% 29.92 in 10.0 mi SSW 5.8 mph - N/A   Scattered Clouds
9:53 PM 70.0 °F 66.0 °F 87% 29.93 in 10.0 mi WSW 5.8 mph - N/A   Mostly Cloudy
10:25 PM 69.8 °F 64.4 °F 83% 29.94 in 10.0 mi SW 8.1 mph - N/A   Scattered Clouds
10:53 PM 70.0 °F 64.9 °F 84% 29.93 in 10.0 mi SW 9.2 mph - N/A   Clear
11:53 PM 69.1 °F 64.9 °F 87% 29.93 in 10.0 mi WSW 8.1 mph - N/A   Mostly Cloudy